Regional Weather Roundup
Issued by NWS

Home | Current Version | Previous Version | Graphics & Text | Print | Product List | Glossary On
Versions: 1 2 3 4 5 6 7 8 9 10 11 12 13 14 15 16 17 18 19 20 21 22 23 24 25 26 27 28 29 30 31 32 33 34 35 36 37 38 39 40 41 42 43 44 45 46 47 48 49 50
000
ASUS43 KIND 311759
RWRIN

WEATHER ROUNDUP FOR INDIANA
NATIONAL WEATHER SERVICE INDIANAPOLIS IN
200 PM EDT WED AUG 31 2016

NOTE: "FAIR" INDICATES FEW OR NO CLOUDS BELOW 12,000 FEET WITH NO
SIGNIFICANT WEATHER AND/OR OBSTRUCTIONS TO VISIBILITY.

* - STATION DOES NOT REPORT WEATHER SUCH AS PRECIPITATION OR FOG.

+ - STATION NOT QUALITY CONTROLLED BY THE NATIONAL WEATHER SERVICE.
    USE DATA WITH CAUTION...ESPECIALLY DEWPOINT AND RELATIVE
    HUMIDITY OBSERVATIONS.

INZ001>003-010>013-019-020-311900-
NORTHWEST INDIANA

CITY           SKY/WX    TMP DP  RH WIND       PRES   REMARKS
GARY /AIRPORT/ PTSUNNY   75  66  73 N17       30.07S
KNOX *+        PTSUNNY   79  50  36 NW12      30.01F
MONTICELLO +   MOSUNNY   82  65  57 NW5       30.00F
6HR MIN TEMP:  69; 6HR MAX TEMP:  83;


$$

LMZ046-743>745-311900-
SOUTHERN LAKE MICHIGAN

STATION/POSITION TIME  TEMP    WIND        PRES    WAVE
                       AIR SEA DIR/SP/G            HT
                 (UTC) (F)     (DEG/KT/KT) (MB)    (FT)
BURNS HARBOR     1706   72     360/ 15/ 18 1017.9S
MICHIGAN CITY    1700   72     350/ 16/ 19   N/A
5NW MICH CITY    1700   72 71  360/ 16/ 19   N/A     4

$$

INZ004-005-014>016-021>024-311900-
NORTH CENTRAL INDIANA

CITY           SKY/WX    TMP DP  RH WIND       PRES   REMARKS
ELKHART        PTSUNNY  N/A N/A N/A N8        30.00F
GOSHEN         PTSUNNY   81  67  62 E6        30.00F
6HR MIN TEMP:  70; 6HR MAX TEMP:  82;

PERU/GRISSOM   MOSUNNY   81  70  68 VRB1      30.00F
6HR MIN TEMP:  70; 6HR MAX TEMP:  82;

SOUTH BEND     PTSUNNY   79  70  74 NW16      30.01F
6HR MIN TEMP:  69; 6HR MAX TEMP:  82;


$$

INZ006>009-017-018-025>027-311900-
NORTHEAST INDIANA

CITY           SKY/WX    TMP DP  RH WIND       PRES   REMARKS
ANGOLA *+      PTSUNNY   82  72  69 N6        30.00F
FORT WAYNE     PTSUNNY   80  69  69 NW5       30.00F
6HR MIN TEMP:  70; 6HR MAX TEMP:  83;


$$

INZ028-029-035-036-043>045-051>053-311900-
WEST CENTRAL INDIANA

CITY           SKY/WX    TMP DP  RH WIND       PRES   REMARKS
CRAWFORDSVL +  PTSUNNY   81  72  74 W5        30.02F
6HR MIN TEMP:  68; 6HR MAX TEMP:  81; 6HR PCP:  0.01;

LAFAYETTE      CLOUDY    81  71  71 CALM      30.00F
6HR MIN TEMP:  70; 6HR MAX TEMP:  82;

TERRE HAUTE    MOSUNNY   83  70  64 VRB3      30.00F
6HR MIN TEMP:  70; 6HR MAX TEMP:  84;


$$

INZ030>032-037>040-046>048-054>057-064-065-311900-
CENTRAL INDIANA

CITY           SKY/WX    TMP DP  RH WIND       PRES   REMARKS
ANDERSON       PTSUNNY   81  72  74 NW12      30.01F
INDIANAPOLIS   PTSUNNY   84  70  62 N6        29.99F
6HR MIN TEMP:  70; 6HR MAX TEMP:  84;

-EAGLE CREEK   MOSUNNY   83  70  64 N7        29.99F
6HR MIN TEMP:  70; 6HR MAX TEMP:  84;

KOKOMO *+      PTSUNNY   81  73  78 CALM      30.01S
6HR MIN TEMP:  70; 6HR MAX TEMP:  81;

MT COMFORT *+  MOSUNNY   82  70  65 NW7       30.00F
SHELBYVILLE    MOSUNNY   84  71  65 VRB3      29.98F
6HR MIN TEMP:  71; 6HR MAX TEMP:  85;


$$

INZ033-034-041-042-049-050-058-059-311900-
EAST CENTRAL INDIANA

CITY           SKY/WX    TMP DP  RH WIND       PRES   REMARKS
MUNCIE         MOSUNNY   82  72  71 NW9       30.00F
6HR MIN TEMP:  71; 6HR MAX TEMP:  82;


$$

INZ060-061-067>069-081>083-085>088-311900-
SOUTHWEST INDIANA

CITY           SKY/WX    TMP DP  RH WIND       PRES   REMARKS
EVANSVILLE     MOSUNNY   89  69  51 VRB5      29.99F
6HR MIN TEMP:  73; 6HR MAX TEMP:  89;

HUNTINGBURG *+ MOSUNNY   84  72  65 NW9       29.99F
6HR MIN TEMP:  72; 6HR MAX TEMP:  88;


$$

INZ062-063-066-070>080-084-089>092-311900-
SOUTH CENTRAL AND SOUTHEAST INDIANA

CITY           SKY/WX    TMP DP  RH WIND       PRES   REMARKS
BLOOMINGTON    PTSUNNY   81  70  69 VRB5      30.00F
6HR MIN TEMP:  69; 6HR MAX TEMP:  85; 6HR PCP: TRACE;

MADISON *+     PTSUNNY   84  70  61 NW6       30.01F

$$





USA.gov is the U.S. government's official web portal to all federal, state and local government web resources and services.